COSMOS 2251 DEB, 34116

Orbit data source: Space-Track

COSMOS 2251 DEB, 34116 is space debris in LEO originally from a launch on Wed, 16 Jun 1993 UTC launched from the Plesetsk Missile And Space Complex (PKMTR). The debris from Iridium 33, an American commercial communications satellite, has been tracked extensively since its accidental collision with the defunct Russian satellite Cosmos 2251 in 2009. This event, occurring at high speed in low Earth orbit (LEO), generated thousands of pieces of space debris, significantly increasing the risk of further collisions. The Iridium 33 debris cloud has impacted space traffic management and orbital debris mitigation strategies, making it a subject of ongoing study in space situational awareness.

Loading next visibility...
Identifier
34116, 1993-036KM
Orbit
LEO
Country
Flag of CISCIS
Related business
Manufacturer
Unknown
Mission
Spacecraft
Bus & Motor
Unknown
Mass
Unknown
Launch date (UTC)
1993-06-16 (33 years ago)
Launch vehicle
Unknown
Launch site
Plesetsk Missile And Space Complex (PKMTR)
Object type
Payload
Rocket body
Debris
Shape & HBR
Unknown shape, 0.2 m
Radar Cross Section
Medium (>0.1 m² and <1 m²)

Expand to show TLE details & history
Last TLE update: 2 days ago

TLE from 2 days ago
0 COSMOS 2251 DEB
1 34116U 93036KM  26171.45779021  .00001548  00000-0  37249-3 0  9994
2 34116  74.0387 184.5266 0012189 223.7812 255.3929 14.54148708912430
Epoch: 2026-06-20T10:59Z
TLE epoch observation values (Epoch: 2026-06-20T10:59:13.074Z)
Latitude
57.31027°
Longitude
-95.26465°
Altitude
723.593 km
Speed
7.498 km/s
True Right ascension
22h 32m 50s
True Declination
57° 09' 11"
Sunlit
Object was in daylight at epoch
Visualization orbit readout
Latitude
Unknown
Longitude
Unknown
Altitude
Unknown
Speed
Unknown
Apparent Right ascension
Unknown
Apparent Declination
Unknown
Sunlit
N/A
Visualization observer readout
Local Sidereal Time
05:24:23
Azimuth
Unknown
Elevation
Unknown
Doppler factor
Unknown
Orbital elements
Apogee altitude
718.374 km
Perigee altitude
701.095 km
Semi-major axis
7,087.871 km
Eccentricity
0.00122
Inclination
74.0387°
RAAN
184.5266°
Arg. of periapsis
223.7812°
True anomaly
255.25779°
Mean anomaly
255.3929°
Eccentric anomaly
255.32534°
Mean motion
3.63722 °/min
Orbital period
98.98 mins
BSTAR
0.00037249
Loading maneuver chart data...
Computing Atmospheric mass density...

Documentation

Showing up to 5 results
|